| time (UTC) | temp C | wind direction | speed KPH | gust KPH | rain 1hr cm | rain 24hr cm | rain mn cm | humidity % | barometer mb |
| 20260506025409 | 6 | 219 | 0.0 | 0.0 | 0.00 | 0.03 | 0.00 | 90 | 1008.5 |
| 20260506024908 | 6 | 219 | 0.0 | 0.0 | 0.00 | 0.03 | 0.00 | 90 | 1008.4 |
| 20260506024843 | 6 | 219 | 0.0 | 0.0 | 0.00 | 0.03 | 0.00 | 90 | 1008.4 |
| 20260506023914 | 6 | 219 | 0.0 | 0.0 | 0.00 | 0.03 | 0.00 | 89 | 1008.5 |
| 20260506023901 | 6 | 219 | 0.0 | 0.0 | 0.00 | 0.03 | 0.00 | 89 | 1008.4 |
| 20260506022910 | 7 | 219 | 0.0 | 0.0 | 0.00 | 0.03 | 0.00 | 89 | 1008.4 |
| 20260506022412 | 7 | 219 | 0.0 | 1.6 | 0.00 | 0.03 | 0.00 | 89 | 1008.5 |
| 20260506021908 | 7 | 219 | 0.0 | 1.6 | 0.00 | 0.03 | 0.00 | 90 | 1008.4 |
| 20260506021410 | 7 | 219 | 0.0 | 0.0 | 0.00 | 0.03 | 0.00 | 90 | 1008.4 |
| 20260506021335 | 7 | 219 | 0.0 | 0.0 | 0.00 | 0.03 | 0.00 | 90 | 1008.4 |
| 20260506020857 | 7 | 219 | 0.0 | 1.6 | 0.00 | 0.03 | 0.00 | 90 | 1008.4 |
| 20260506015857 | 8 | 219 | 0.0 | 1.6 | 0.00 | 0.03 | 0.00 | 90 | 1008.5 |
| 20260506015355 | 8 | 219 | 0.0 | 0.0 | 0.00 | 0.03 | 0.00 | 90 | 1008.5 |
| 20260506014853 | 8 | 219 | 0.0 | 0.0 | 0.00 | 0.03 | 0.00 | 89 | 1008.6 |
| 20260506014353 | 8 | 219 | 0.0 | 0.0 | 0.00 | 0.03 | 0.00 | 89 | 1008.7 |
| 20260506013853 | 8 | 219 | 0.0 | 0.0 | 0.00 | 0.03 | 0.00 | 89 | 1008.7 |
| 20260506013353 | 8 | 219 | 0.0 | 1.6 | 0.00 | 0.03 | 0.00 | 89 | 1008.7 |
| 20260506012854 | 8 | 219 | 0.0 | 1.6 | 0.00 | 0.03 | 0.00 | 89 | 1008.7 |
| 20260506012352 | 8 | 219 | 0.0 | 0.0 | 0.00 | 0.03 | 0.00 | 88 | 1008.8 |
| 20260506011853 | 8 | 219 | 0.0 | 0.0 | 0.00 | 0.03 | 0.00 | 87 | 1008.8 |
| 20260506011350 | 9 | 219 | 0.0 | 0.0 | 0.00 | 0.03 | 0.00 | 86 | 1008.7 |
| 20260506010854 | 10 | 0 | 0.0 | 0.0 | 0.00 | 0.03 | 0.00 | 87 | 1008.6 |
| 20260506010351 | 10 | 220 | 0.0 | 1.6 | 0.00 | 0.03 | 0.00 | 87 | 1008.6 |
| 20260506005853 | 10 | 220 | 0.0 | 3.2 | 0.00 | 0.03 | 0.00 | 87 | 1008.7 |
| 20260506005349 | 10 | 220 | 0.0 | 3.2 | 0.00 | 0.03 | 0.00 | 88 | 1008.7 |
| 20260506004852 | 10 | 220 | 0.0 | 1.6 | 0.00 | 0.03 | 0.00 | 88 | 1008.7 |
| 20260506004346 | 10 | 220 | 0.0 | 3.2 | 0.00 | 0.03 | 0.00 | 88 | 1008.7 |
| 20260506003849 | 10 | 220 | 0.0 | 3.2 | 0.00 | 0.03 | 0.00 | 88 | 1008.7 |
| 20260506003347 | 10 | 220 | 1.6 | 3.2 | 0.00 | 0.03 | 0.00 | 88 | 1008.8 |
| 20260506002847 | 11 | 220 | 1.6 | 3.2 | 0.00 | 0.03 | 0.00 | 88 | 1008.9 |
| 20260506002816 | 11 | 220 | 1.6 | 3.2 | 0.00 | 0.03 | 0.00 | 88 | 1008.9 |
| 20260506002344 | 11 | 220 | 0.0 | 3.2 | 0.00 | 0.03 | 0.00 | 88 | 1008.8 |
| 20260506001347 | 11 | 220 | 1.6 | 3.2 | 0.00 | 0.03 | 0.00 | 88 | 1008.9 |
| 20260506000845 | 11 | 220 | 1.6 | 4.8 | 0.00 | 0.03 | 0.00 | 88 | 1008.9 |
| 20260506000411 | 11 | 221 | 3.2 | 4.8 | 0.00 | 0.03 | 0.00 | 88 | 1008.9 |
| 20260506000354 | 11 | 220 | 1.6 | 4.8 | 0.00 | 0.03 | 0.00 | 88 | 1008.9 |
| 20260505235811 | 11 | 237 | 0.0 | 1.6 | 0.00 | 0.03 | 0.00 | 88 | 1009.0 |
| 20260505234840 | 11 | 237 | 0.0 | 1.6 | 0.00 | 0.03 | 0.00 | 88 | 1009.0 |
| 20260505234339 | 11 | 237 | 0.0 | 8.0 | 0.00 | 0.03 | 0.00 | 88 | 1009.0 |
| 20260505233839 | 11 | 237 | 1.6 | 8.0 | 0.00 | 0.03 | 0.00 | 89 | 1009.0 |
| 20260505233343 | 11 | 237 | 1.6 | 4.8 | 0.00 | 0.03 | 0.00 | 89 | 1009.1 |
| 20260505232846 | 11 | 237 | 0.0 | 3.2 | 0.00 | 0.03 | 0.00 | 89 | 1009.1 |
| 20260505232341 | 11 | 237 | 1.6 | 4.8 | 0.00 | 0.03 | 0.00 | 88 | 1009.2 |
| 20260505231840 | 11 | 237 | 1.6 | 4.8 | 0.00 | 0.03 | 0.00 | 88 | 1009.2 |
| 20260505231338 | 11 | 237 | 0.0 | 1.6 | 0.00 | 0.03 | 0.00 | 88 | 1009.1 |
| 20260505230837 | 12 | 237 | 0.0 | 1.6 | 0.00 | 0.03 | 0.00 | 88 | 1009.2 |
| 20260505230355 | 12 | 237 | 0.0 | 0.0 | 0.00 | 0.03 | 0.00 | 88 | 1009.2 |
| 20260505225844 | 12 | 237 | 0.0 | 1.6 | 0.00 | 0.03 | 0.00 | 88 | 1009.2 |
| 20260505225352 | 12 | 234 | 0.0 | 3.2 | 0.00 | 0.03 | 0.00 | 88 | 1009.2 |
| 20260505224901 | 12 | 234 | 1.6 | 3.2 | 0.00 | 0.03 | 0.00 | 87 | 1009.3 |
| 20260505224357 | 12 | 235 | 1.6 | 3.2 | 0.00 | 0.03 | 0.00 | 86 | 1009.3 |
| 20260505223858 | 12 | 235 | 0.0 | 1.6 | 0.00 | 0.03 | 0.00 | 85 | 1009.0 |
| 20260505223659 | 13 | 235 | 0.0 | 3.2 | 0.00 | 0.03 | 0.00 | 83 | 1008.9 |
| 20260505223431 | 13 | 235 | 0.0 | 1.6 | 0.00 | 0.03 | 0.00 | 84 | 1008.9 |
| 20260505222914 | 13 | 235 | 0.0 | 1.6 | 0.00 | 0.03 | 0.00 | 83 | 1008.8 |
| 20260505222247 | 13 | 235 | 1.6 | 8.0 | 0.00 | 0.03 | 0.00 | 82 | 1009.0 |
| 20260505221931 | 13 | 235 | 1.6 | 4.8 | 0.00 | 0.03 | 0.00 | 83 | 1008.8 |
| 20260505220834 | 13 | 234 | 0.0 | 14.5 | 0.00 | 0.03 | 0.00 | 82 | 1009.1 |
| 20260505220402 | 13 | 237 | 6.4 | 14.5 | 0.00 | 0.03 | 0.00 | 82 | 1009.1 |
| 20260505215854 | 13 | 230 | 3.2 | 11.3 | 0.00 | 0.03 | 0.03 | 81 | 1009.0 |
| 20260505215353 | 13 | 245 | 6.4 | 11.3 | 0.00 | 0.03 | 0.03 | 81 | 1009.1 |
| 20260505214855 | 13 | 228 | 4.8 | 11.3 | 0.00 | 0.03 | 0.03 | 82 | 1009.1 |
| 20260505214543 | 13 | 204 | 1.6 | 4.8 | 0.00 | 0.03 | 0.03 | 82 | 1009.0 |
| 20260505213858 | 13 | 204 | 1.6 | 8.0 | 0.00 | 0.03 | 0.03 | 82 | 1009.1 |
| 20260505212926 | 13 | 264 | 3.2 | 11.3 | 0.00 | 0.03 | 0.03 | 83 | 1008.9 |
| 20260505212839 | 13 | 264 | 3.2 | 12.9 | 0.00 | 0.03 | 0.03 | 82 | 1009.0 |
| 20260505212409 | 13 | 266 | 8.0 | 12.9 | 0.00 | 0.03 | 0.03 | 82 | 1009.0 |
| 20260505211903 | 13 | 268 | 4.8 | 11.3 | 0.00 | 0.03 | 0.03 | 82 | 1009.0 |
| 20260505211418 | 13 | 261 | 4.8 | 11.3 | 0.00 | 0.03 | 0.03 | 82 | 1008.9 |
| 20260505210427 | 13 | 259 | 4.8 | 12.9 | 0.00 | 0.03 | 0.03 | 84 | 1009.0 |
| 20260505205846 | 13 | 224 | 4.8 | 12.9 | 0.00 | 0.03 | 0.03 | 84 | 1008.9 |
| 20260505205349 | 13 | 226 | 6.4 | 11.3 | 0.00 | 0.03 | 0.03 | 84 | 1008.9 |
| 20260505204844 | 13 | 238 | 1.6 | 9.7 | 0.00 | 0.03 | 0.03 | 84 | 1008.8 |
| 20260505204326 | 13 | 244 | 3.2 | 11.3 | 0.00 | 0.03 | 0.03 | 84 | 1008.7 |
| 20260505203832 | 13 | 231 | 1.6 | 11.3 | 0.00 | 0.03 | 0.03 | 85 | 1008.6 |
| 20260505203333 | 11 | 276 | 1.6 | 4.8 | 0.00 | 0.03 | 0.03 | 88 | 1007.6 |
| 20260505203325 | 13 | 233 | 3.2 | 8.0 | 0.00 | 0.03 | 0.03 | 85 | 1008.4 |
| 20260505202849 | 13 | 216 | 1.6 | 8.0 | 0.00 | 0.03 | 0.03 | 85 | 1008.4 |
| 20260505202509 | 13 | 233 | 1.6 | 8.0 | 0.00 | 0.03 | 0.03 | 86 | 1008.3 |
| 20260505201853 | 13 | 241 | 3.2 | 8.0 | 0.00 | 0.03 | 0.03 | 87 | 1008.2 |
| 20260505201344 | 12 | 268 | 1.6 | 11.3 | 0.00 | 0.03 | 0.03 | 88 | 1008.1 |
| 20260505200847 | 12 | 240 | 8.0 | 11.3 | 0.00 | 0.03 | 0.03 | 89 | 1008.2 |
| 20260505200411 | 12 | 250 | 4.8 | 9.7 | 0.00 | 0.03 | 0.03 | 89 | 1007.8 |
| 20260505195907 | 12 | 258 | 1.6 | 4.8 | 0.00 | 0.03 | 0.03 | 88 | 1007.7 |
| 20260505194317 | 11 | 38 | 1.6 | 3.2 | 0.00 | 0.03 | 0.03 | 86 | 1007.4 |
| 20260505193828 | 12 | 45 | 0.0 | 4.8 | 0.00 | 0.03 | 0.03 | 86 | 1007.1 |
| 20260505193316 | 12 | 45 | 0.0 | 4.8 | 0.00 | 0.03 | 0.03 | 85 | 1007.1 |
| 20260505192816 | 12 | 45 | 4.8 | 4.8 | 0.00 | 0.03 | 0.03 | 85 | 1007.1 |
| 20260505192323 | 12 | 290 | 0.0 | 4.8 | 0.00 | 0.03 | 0.03 | 86 | 1007.2 |
| 20260505192255 | 12 | 288 | 3.2 | 3.2 | 0.00 | 0.03 | 0.03 | 85 | 1007.1 |
| 20260505191318 | 12 | 286 | 0.0 | 4.8 | 0.00 | 0.03 | 0.03 | 85 | 1007.2 |
| 20260505190843 | 13 | 285 | 1.6 | 8.0 | 0.00 | 0.03 | 0.03 | 83 | 1007.1 |
| 20260505190819 | 12 | 288 | 3.2 | 4.8 | 0.00 | 0.03 | 0.03 | 84 | 1007.2 |
| 20260505190448 | 12 | 285 | 3.2 | 4.8 | 0.00 | 0.03 | 0.03 | 83 | 1007.2 |
| 20260505185305 | 13 | 285 | 3.2 | 8.0 | 0.00 | 0.03 | 0.03 | 82 | 1007.1 |
| 20260505184810 | 13 | 286 | 3.2 | 4.8 | 0.00 | 0.03 | 0.03 | 82 | 1007.0 |
| 20260505184302 | 13 | 288 | 3.2 | 9.7 | 0.00 | 0.03 | 0.03 | 81 | 1007.0 |
| 20260505183849 | 13 | 274 | 4.8 | 12.9 | 0.00 | 0.03 | 0.03 | 80 | 1006.9 |
| 20260505183814 | 13 | 295 | 1.6 | 11.3 | 0.00 | 0.03 | 0.03 | 81 | 1006.9 |
| 20260505182949 | 14 | 274 | 8.0 | 11.3 | 0.00 | 0.03 | 0.03 | 79 | 1006.8 |
| 20260505182944 | 15 | 262 | 8.0 | 14.5 | 0.00 | 0.03 | 0.03 | 78 | 1006.7 |
| 20260505182844 | 14 | 281 | 8.0 | 12.9 | 0.00 | 0.03 | 0.03 | 79 | 1006.8 |
| 20260505181330 | 15 | 266 | 6.4 | 14.5 | 0.00 | 0.03 | 0.03 | 77 | 1006.6 |
| 20260505180807 | 15 | 266 | 8.0 | 12.9 | 0.00 | 0.03 | 0.03 | 77 | 1006.5 |
| 20260505180319 | 15 | 274 | 4.8 | 9.7 | 0.00 | 0.03 | 0.03 | 78 | 1006.4 |
| 20260505175756 | 15 | 281 | 1.6 | 4.8 | 0.00 | 0.03 | 0.03 | 80 | 1006.5 |
| 20260505175309 | 15 | 292 | 1.6 | 4.8 | 0.03 | 0.03 | 0.03 | 81 | 1006.5 |
| 20260505175115 | 15 | 340 | 0.0 | 3.2 | 0.03 | 0.03 | 0.03 | 82 | 1006.5 |
| 20260505174832 | 15 | 333 | 1.6 | 3.2 | 0.03 | 0.03 | 0.03 | 82 | 1006.5 |
| 20260505173757 | 15 | 341 | 1.6 | 3.2 | 0.03 | 0.03 | 0.03 | 82 | 1006.5 |
| 20260505173257 | 15 | 341 | 0.0 | 4.8 | 0.03 | 0.03 | 0.03 | 83 | 1006.5 |
| 20260505172815 | 15 | 358 | 3.2 | 4.8 | 0.03 | 0.03 | 0.03 | 83 | 1006.3 |
| 20260505172254 | 15 | 244 | 1.6 | 3.2 | 0.03 | 0.03 | 0.03 | 83 | 1006.5 |
| 20260505171754 | 15 | 227 | 0.0 | 8.0 | 0.03 | 0.03 | 0.03 | 82 | 1006.6 |
| 20260505171310 | 15 | 227 | 3.2 | 8.0 | 0.03 | 0.03 | 0.03 | 80 | 1006.7 |
| 20260505170815 | 15 | 224 | 3.2 | 8.0 | 0.03 | 0.03 | 0.03 | 82 | 1006.9 |
| 20260505170328 | 15 | 223 | 4.8 | 8.0 | 0.03 | 0.03 | 0.03 | 81 | 1006.8 |
| 20260505165810 | 15 | 192 | 0.0 | 4.8 | 0.00 | 0.00 | 0.00 | 79 | 1006.9 |
| 20260505165331 | 15 | 144 | 0.0 | 3.2 | 0.00 | 0.00 | 0.00 | 76 | 1006.7 |
| 20260505165306 | 15 | 144 | 0.0 | 1.6 | 0.00 | 0.00 | 0.00 | 76 | 1006.8 |
| 20260505164249 | 15 | 224 | 0.0 | 4.8 | 0.00 | 0.00 | 0.00 | 74 | 1006.9 |
| 20260505163756 | 16 | 230 | 0.0 | 11.3 | 0.00 | 0.00 | 0.00 | 74 | 1006.9 |
| 20260505163300 | 16 | 188 | 3.2 | 12.9 | 0.00 | 0.00 | 0.00 | 72 | 1007.0 |
| 20260505162754 | 16 | 248 | 1.6 | 17.7 | 0.00 | 0.00 | 0.00 | 71 | 1006.7 |
| 20260505162243 | 16 | 237 | 9.7 | 17.7 | 0.00 | 0.00 | 0.00 | 69 | 1006.8 |
| 20260505161755 | 17 | 234 | 9.7 | 24.1 | 0.00 | 0.00 | 0.00 | 68 | 1006.8 |
| 20260505161248 | 17 | 171 | 11.3 | 24.1 | 0.00 | 0.00 | 0.00 | 65 | 1006.9 |
| 20260505161008 | 17 | 245 | 12.9 | 24.1 | 0.00 | 0.00 | 0.00 | 65 | 1006.5 |
| 20260505160807 | 17 | 255 | 14.5 | 19.3 | 0.00 | 0.00 | 0.00 | 65 | 1006.6 |
| 20260505153248 | 18 | 261 | 17.7 | 27.4 | 0.00 | 0.00 | 0.00 | 60 | 1005.7 |
| 20260505152801 | 19 | 272 | 12.9 | 29.0 | 0.00 | 0.00 | 0.00 | 59 | 1005.6 |
| 20260505152245 | 20 | 264 | 16.1 | 30.6 | 0.00 | 0.00 | 0.00 | 56 | 1005.7 |
| 20260505151744 | 20 | 266 | 19.3 | 32.2 | 0.00 | 0.00 | 0.00 | 52 | 1005.6 |
| 20260505151237 | 21 | 254 | 20.9 | 32.2 | 0.00 | 0.00 | 0.00 | 50 | 1005.5 |
| 20260505150857 | 21 | 245 | 6.4 | 14.5 | 0.00 | 0.00 | 0.00 | 43 | 1005.3 |
| 20260505150827 | 22 | 204 | 3.2 | 14.5 | 0.00 | 0.00 | 0.00 | 45 | 1005.2 |
| 20260505150741 | 21 | 305 | 11.3 | 17.7 | 0.00 | 0.00 | 0.00 | 48 | 1005.3 |
| 20260505150419 | 21 | 248 | 11.3 | 16.1 | 0.00 | 0.00 | 0.00 | 47 | 1005.3 |
| 20260505124756 | 23 | 240 | 6.4 | 11.3 | 0.00 | 0.00 | 0.00 | 39 | 1005.9 |
| 20260505124237 | 23 | 243 | 3.2 | 4.8 | 0.00 | 0.00 | 0.00 | 41 | 1005.7 |
| 20260505123737 | 23 | 141 | 0.0 | 3.2 | 0.00 | 0.00 | 0.00 | 41 | 1005.9 |
| 20260505122742 | 23 | 121 | 0.0 | 4.8 | 0.00 | 0.00 | 0.00 | 40 | 1005.9 |
| 20260505122221 | 23 | 140 | 0.0 | 4.8 | 0.00 | 0.00 | 0.00 | 39 | 1006.0 |
| 20260505121736 | 23 | 196 | 0.0 | 3.2 | 0.00 | 0.00 | 0.00 | 45 | 1005.9 |
| 20260505121242 | 23 | 193 | 1.6 | 9.7 | 0.00 | 0.00 | 0.00 | 41 | 1006.0 |
| 20260505120753 | 23 | 134 | 1.6 | 9.7 | 0.00 | 0.00 | 0.00 | 42 | 1005.9 |
| 20260505120238 | 23 | 42 | 1.6 | 12.9 | 0.00 | 0.00 | 0.00 | 40 | 1006.0 |
| 20260505115756 | 23 | 142 | 0.0 | 3.2 | 0.00 | 0.00 | 0.00 | 46 | 1006.3 |
| 20260505115724 | 23 | 298 | 1.6 | 12.9 | 0.00 | 0.00 | 0.00 | 41 | 1006.1 |
| 20260505115248 | 23 | 111 | 8.0 | 12.9 | 0.00 | 0.00 | 0.00 | 43 | 1006.1 |
| 20260505114750 | 23 | 134 | 0.0 | 3.2 | 0.00 | 0.00 | 0.00 | 45 | 1006.1 |
| 20260505114212 | 23 | 133 | 0.0 | 3.2 | 0.00 | 0.00 | 0.00 | 43 | 1006.3 |
| 20260505113807 | 23 | 131 | 0.0 | 3.2 | 0.00 | 0.00 | 0.00 | 44 | 1006.2 |
| 20260505112733 | 23 | 135 | 0.0 | 4.8 | 0.00 | 0.00 | 0.00 | 48 | 1006.5 |
| 20260505112239 | 23 | 172 | 0.0 | 8.0 | 0.00 | 0.00 | 0.00 | 49 | 1006.5 |
| 20260505111714 | 23 | 72 | 1.6 | 8.0 | 0.00 | 0.00 | 0.00 | 53 | 1006.7 |
| 20260505111213 | 23 | 62 | 1.6 | 4.8 | 0.00 | 0.00 | 0.00 | 52 | 1006.8 |
| 20260505110730 | 23 | 183 | 0.0 | 14.5 | 0.00 | 0.00 | 0.00 | 50 | 1006.9 |
| 20260505110304 | 22 | 114 | 4.8 | 14.5 | 0.00 | 0.00 | 0.00 | 51 | 1006.8 |
| 20260505101742 | 22 | 286 | 3.2 | 9.7 | 0.00 | 0.00 | 0.00 | 54 | 1007.5 |
| 20260505101213 | 21 | 261 | 4.8 | 9.7 | 0.00 | 0.00 | 0.00 | 53 | 1007.6 |
| 20260505101203 | 22 | 252 | 4.8 | 9.7 | 0.00 | 0.00 | 0.00 | 51 | 1007.5 |
| 20260505100752 | 22 | 262 | 3.2 | 9.7 | 0.00 | 0.00 | 0.00 | 55 | 1007.5 |
| 20260505095725 | 21 | 221 | 0.0 | 3.2 | 0.00 | 0.00 | 0.00 | 57 | 1007.7 |
| 20260505095221 | 21 | 221 | 1.6 | 3.2 | 0.00 | 0.00 | 0.00 | 57 | 1007.8 |
| 20260505094722 | 21 | 226 | 0.0 | 8.0 | 0.00 | 0.00 | 0.00 | 54 | 1007.8 |
| 20260505094225 | 21 | 226 | 1.6 | 8.0 | 0.00 | 0.00 | 0.00 | 52 | 1007.8 |
| 20260505093714 | 21 | 113 | 0.0 | 4.8 | 0.00 | 0.00 | 0.00 | 55 | 1007.8 |
| 20260505093225 | 21 | 124 | 0.0 | 4.8 | 0.00 | 0.00 | 0.00 | 56 | 1007.8 |
| 20260505092704 | 21 | 125 | 0.0 | 4.8 | 0.00 | 0.00 | 0.00 | 56 | 1007.9 |
| 20260505092205 | 21 | 96 | 1.6 | 4.8 | 0.00 | 0.00 | 0.00 | 58 | 1008.1 |
| 20260505091721 | 20 | 152 | 0.0 | 3.2 | 0.00 | 0.00 | 0.00 | 59 | 1008.3 |
| 20260505091204 | 20 | 192 | 0.0 | 1.6 | 0.00 | 0.00 | 0.00 | 57 | 1008.4 |
| 20260505090659 | 20 | 192 | 0.0 | 4.8 | 0.00 | 0.00 | 0.00 | 57 | 1008.4 |
| 20260505090632 | 20 | 158 | 0.0 | 9.7 | 0.00 | 0.00 | 0.00 | 57 | 1008.5 |
| 20260505090628 | 20 | 216 | 1.6 | 9.7 | 0.00 | 0.00 | 0.00 | 57 | 1008.5 |
| 20260505090623 | 20 | 216 | 0.0 | 3.2 | 0.00 | 0.00 | 0.00 | 60 | 1008.6 |
| 20260505090234 | 20 | 190 | 1.6 | 4.8 | 0.00 | 0.00 | 0.00 | 55 | 1008.4 |
| 20260505085729 | 20 | 193 | 1.6 | 4.8 | 0.00 | 0.00 | 0.00 | 57 | 1008.6 |
| 20260505085354 | 20 | 203 | 0.0 | 3.2 | 0.00 | 0.00 | 0.00 | 57 | 1008.5 |
| 20260505083140 | 20 | 223 | 1.6 | 8.0 | 0.00 | 0.00 | 0.00 | 62 | 1008.6 |
| 20260505082647 | 19 | 219 | 3.2 | 8.0 | 0.00 | 0.00 | 0.00 | 62 | 1008.6 |
| 20260505082136 | 19 | 206 | 4.8 | 8.0 | 0.00 | 0.00 | 0.00 | 63 | 1008.7 |
| 20260505081630 | 19 | 171 | 1.6 | 8.0 | 0.00 | 0.00 | 0.00 | 63 | 1008.6 |
| 20260505081135 | 19 | 213 | 0.0 | 4.8 | 0.00 | 0.00 | 0.00 | 61 | 1008.6 |
| 20260505080716 | 19 | 212 | 3.2 | 4.8 | 0.00 | 0.00 | 0.00 | 61 | 1008.7 |
| 20260505080255 | 19 | 213 | 0.0 | 8.0 | 0.00 | 0.00 | 0.00 | 61 | 1008.6 |
| 20260505075118 | 20 | 180 | 1.6 | 3.2 | 0.00 | 0.00 | 0.00 | 62 | 1008.8 |
| 20260505074626 | 20 | 317 | 0.0 | 1.6 | 0.00 | 0.00 | 0.00 | 61 | 1008.8 |
| 20260505074557 | 19 | 319 | 1.6 | 3.2 | 0.00 | 0.00 | 0.00 | 62 | 1008.7 |
| 20260505074202 | 19 | 319 | 0.0 | 3.2 | 0.00 | 0.00 | 0.00 | 63 | 1008.7 |
| 20260505073141 | 19 | 320 | 0.0 | 1.6 | 0.00 | 0.00 | 0.00 | 63 | 1008.7 |
| 20260505072619 | 19 | 319 | 0.0 | 3.2 | 0.00 | 0.00 | 0.00 | 66 | 1008.8 |
| 20260505072124 | 18 | 321 | 1.6 | 3.2 | 0.00 | 0.00 | 0.00 | 67 | 1008.8 |
| 20260505071803 | 18 | 300 | 0.0 | 0.0 | 0.00 | 0.00 | 0.00 | 67 | 1008.9 |
| 20260505071639 | 18 | 314 | 1.6 | 3.2 | 0.00 | 0.00 | 0.00 | 67 | 1008.9 |
| 20260505071159 | 18 | 306 | 0.0 | 3.2 | 0.00 | 0.00 | 0.00 | 66 | 1008.9 |
| 20260505070150 | 18 | 300 | 0.0 | 1.6 | 0.00 | 0.00 | 0.00 | 69 | 1009.0 |
| 20260505065627 | 18 | 300 | 0.0 | 1.6 | 0.00 | 0.00 | 0.00 | 70 | 1009.0 |
| 20260505065114 | 17 | 305 | 0.0 | 3.2 | 0.00 | 0.00 | 0.00 | 71 | 1009.1 |
| 20260505064704 | 17 | 296 | 1.6 | 4.8 | 0.00 | 0.00 | 0.00 | 73 | 1009.2 |
| 20260505064626 | 17 | 302 | 1.6 | 3.2 | 0.00 | 0.00 | 0.00 | 71 | 1009.1 |
| 20260505063610 | 16 | 292 | 0.0 | 4.8 | 0.00 | 0.00 | 0.00 | 74 | 1009.1 |
| 20260505063125 | 16 | 266 | 1.6 | 4.8 | 0.00 | 0.00 | 0.00 | 76 | 1009.2 |
| 20260505062605 | 15 | 274 | 1.6 | 4.8 | 0.00 | 0.00 | 0.00 | 80 | 1009.3 |
| 20260505062124 | 15 | 258 | 0.0 | 4.8 | 0.00 | 0.00 | 0.00 | 82 | 1009.3 |
| 20260505061634 | 15 | 254 | 0.0 | 3.2 | 0.00 | 0.00 | 0.00 | 84 | 1009.3 |
| 20260505061113 | 14 | 250 | 0.0 | 0.0 | 0.00 | 0.00 | 0.00 | 87 | 1009.4 |
| 20260505060605 | 13 | 250 | 0.0 | 1.6 | 0.00 | 0.00 | 0.00 | 87 | 1009.5 |
| 20260505060108 | 13 | 250 | 0.0 | 3.2 | 0.00 | 0.00 | 0.00 | 89 | 1009.4 |
| 20260505055553 | 12 | 300 | 0.0 | 1.6 | 0.00 | 0.00 | 0.00 | 91 | 1009.4 |
| 20260505054612 | 11 | 300 | 0.0 | 0.0 | 0.00 | 0.00 | 0.00 | 93 | 1009.5 |
| 20260505054105 | 10 | 305 | 0.0 | 0.0 | 0.00 | 0.00 | 0.00 | 93 | 1009.4 |
| 20260505053557 | 10 | 305 | 0.0 | 0.0 | 0.00 | 0.00 | 0.00 | 93 | 1009.3 |
| 20260505053051 | 9 | 305 | 0.0 | 0.0 | 0.00 | 0.00 | 0.00 | 93 | 1009.3 |
| 20260505052603 | 8 | 305 | 0.0 | 0.0 | 0.00 | 0.00 | 0.00 | 93 | 1009.2 |
| 20260505052128 | 8 | 305 | 0.0 | 0.0 | 0.00 | 0.00 | 0.00 | 93 | 1009.3 |
| 20260505051613 | 8 | 305 | 0.0 | 0.0 | 0.00 | 0.00 | 0.00 | 93 | 1009.3 |
| 20260505051109 | 7 | 305 | 0.0 | 0.0 | 0.00 | 0.00 | 0.00 | 92 | 1009.3 |
| 20260505050542 | 7 | 305 | 0.0 | 1.6 | 0.00 | 0.00 | 0.00 | 92 | 1009.3 |
| 20260505041507 | 6 | 305 | 0.0 | 4.8 | 0.00 | 0.00 | 0.00 | 91 | 1009.4 |
| 20260505041010 | 6 | 305 | 3.2 | 4.8 | 0.00 | 0.00 | 0.00 | 91 | 1009.5 |
| 20260505040506 | 6 | 303 | 3.2 | 3.2 | 0.00 | 0.00 | 0.00 | 91 | 1009.5 |
| 20260505040015 | 6 | 303 | 0.0 | 0.0 | 0.00 | 0.00 | 0.00 | 90 | 1009.6 |
| 20260505035521 | 6 | 303 | 0.0 | 0.0 | 0.00 | 0.00 | 0.00 | 90 | 1009.5 |
| 20260505035028 | 6 | 303 | 0.0 | 1.6 | 0.00 | 0.00 | 0.00 | 89 | 1009.5 |
| 20260505034526 | 6 | 303 | 0.0 | 1.6 | 0.00 | 0.00 | 0.00 | 89 | 1009.5 |
| 20260505034208 | 6 | 302 | 0.0 | 3.2 | 0.00 | 0.00 | 0.00 | 90 | 1009.5 |
| 20260505034154 | 6 | 302 | 1.6 | 3.2 | 0.00 | 0.00 | 0.00 | 89 | 1009.6 |
| 20260505034024 | 6 | 303 | 0.0 | 3.2 | 0.00 | 0.00 | 0.00 | 90 | 1009.4 |
| 20260505032510 | 7 | 302 | 0.0 | 3.2 | 0.00 | 0.00 | 0.00 | 89 | 1009.7 |
| 20260505032006 | 7 | 302 | 1.6 | 3.2 | 0.00 | 0.00 | 0.00 | 90 | 1009.6 |
| 20260505031515 | 7 | 302 | 0.0 | 3.2 | 0.00 | 0.00 | 0.00 | 89 | 1009.7 |
| 20260505031002 | 7 | 302 | 0.0 | 3.2 | 0.00 | 0.00 | 0.00 | 90 | 1009.8 |
| 20260505030517 | 7 | 302 | 1.6 | 3.2 | 0.00 | 0.00 | 0.00 | 89 | 1009.7 |
| 20260505025957 | 6 | 302 | 0.0 | 0.0 | 0.00 | 0.00 | 0.00 | 88 | 1009.9 |